Location: Brede
(50.9167°N, 0.6000°E)
Time: 19:27:16
(UTC+00:00)

Vanguard 1 Rocket - Pass Details

Date: 05 December 2020
Orbit: 655 x 4221 km, 34.3° (Epoch: 17 January)

Event Time Altitude Azimuth Distance (km) Brightness Sun altitude
Exits shadow 05:39:40 16° 261° (W) 6,281 11.1 -18.5°
Maximum altitude 05:51:43 28° 221° (SW) 4,541 10.7 -16.7°
Drops below altitude 10° 06:02:50 10° 169° (S) 4,650 11.4 -15.0°
Sets 06:06:26 0° 157° (SSE) 5,190 11.9 -14.5°
